sat.trackr.live / text

‹ back to catalog

STARLINK-35655

NORAD 66470 · 2025-262Q

PAYLOAD ACTIVE UNKNOWN

§ Identity

Operator
Country
US
Launch date
2025-11-15
Launch site
AFETR
Launch vehicle
Mass (kg)
RCS (m²)

Purposes: comms

External: N2YO · Heavens-Above · Gunter

§ Orbital elements

Epoch: 2026-05-24T22:04:21.322272Z

Period
94.27 min
Inclination
42.9990°
Eccentricity
0.0001033
Mean motion
15.27582992 rev/d
Perigee alt
482.3 km
Apogee alt
483.7 km
Semi-major
6,861.2 km
B*
2.9243e-4
RAAN
225.7609°
Arg perigee
280.0391°
Mean anomaly
80.0343°
Rev number
3,056

§ Raw data

STARLINK-356551 66470U 25262Q   26144.91969123  .00007794  00000+0  29243-3 0  99962 66470  42.9990 225.7609 0001033 280.0391  80.0343 15.27582992 30561

JSON: /api/v1/satellites/66470 · /tle

For live sub-satellite position, see the globe view (requires WebGL).

§ Visibility from observer

Set your observer location to see the next 7 days of passes ≥ 10°. The values pass through the URL so the page stays shareable.

No JS? Fill the form by hand. The geolocation button needs JavaScript.